This demonstration page uses our WeatherBlox Daily Observations layout. Learn more.

Left ArrowRight Arrow

34.16533, -84.80231

Hourly Observations for July 13, 2020

Temp ( °F °C ) Dew Point ( °F °C ) Humidity (%) Winds ( mph kmh ) Pressure ( in mb ) Visibility ( mi km ) Precip ( " mm )
12:53 am 00:53 Clear 70 21.1 67 19.4 90 90 Calm 29.85 1011 10 16 0.00 0.00
1:53 am 01:53 Clear 69 20.6 66 18.9 90 90 Calm 29.85 1011 9 14 0.00 0.00
2:53 am 02:53 Clear 68 20 66 18.9 93 93 Calm 29.84 1011 7 11 0.00 0.00
3:16 am 03:16 Mostly Clear with Mist and Fog 68 20 66 18.9 93 93 Calm 29.85 1011 5 8 0.00 0.00
3:53 am 03:53 Clear with Mist and Fog 68 20 66 18.9 93 93 Calm 29.83 1010 6 10 0.00 0.00
4:04 am 04:04 Partly Cloudy with Mist and Fog 67 19.4 65 18.3 93 93 Calm 29.85 1011 4 6 0.00 0.00
4:14 am 04:14 Mostly Cloudy with Mist and Fog 68 20 66 18.9 93 93 Calm 29.85 1011 5 8 0.00 0.00
4:53 am 04:53 Mostly Cloudy with Mist and Fog 68 20 66 18.9 93 93 Calm 29.84 1011 6 10 0.00 0.00
5:43 am 05:43 Cloudy with Mist and Fog 69 20.6 67 19.4 93 93 Calm 29.86 1011 2 3 0.00 0.00
5:53 am 05:53 Cloudy with Mist and Fog 69 20.6 67 19.4 93 93 Calm 29.84 1011 2 3 0.00 0.00
6:02 am 06:02 Cloudy with Mist and Fog 69 20.6 67 19.4 93 93 Calm 29.87 1012 1 2 0.00 0.00
6:12 am 06:12 Mostly Cloudy with Mist and Fog 69 20.6 67 19.4 93 93 Calm 29.87 1012 1 1 0.00 0.00
6:53 am 06:53 Mostly Cloudy with Fog 69 20.6 67 19.4 93 93 Calm 29.86 1011 1 1 0.00 0.00
7:00 am 07:00 Mostly Cloudy with Fog 69 20.6 67 19.4 93 93 Calm 29.88 1012 0 0 0.00 0.00
7:53 am 07:53 Mostly Cloudy with Fog 70 21.1 68 20 93 93 Calm 29.88 1012 0 0 0.00 0.00
8:16 am 08:16 Mostly Cloudy with Fog 71 21.7 69 20.6 94 94 Calm 29.91 1013 1 1 0.00 0.00
8:41 am 08:41 Cloudy with Mist and Fog 71 21.7 69 20.6 94 94 Calm 29.92 1013 1 2 0.00 0.00
8:53 am 08:53 Cloudy with Mist and Fog 71 21.7 69 20.6 94 94 Calm 29.90 1013 1 2 0.00 0.00
9:14 am 09:14 Cloudy with Mist and Fog 72 22.2 69 20.6 91 91 Calm 29.92 1013 4 6 0.00 0.00
9:50 am 09:50 Cloudy 73 23 70 21 89 89 Calm 29.91 1013 8 13 0.00 0.00
9:53 am 09:53 Cloudy 74 23.3 69 20.6 85 85 Calm 29.90 1013 9 14 0.00 0.00
10:10 am 10:10 Cloudy 75 23.9 70 21.1 84 84 Calm 29.91 1013 9 14 0.00 0.00
10:53 am 10:53 Cloudy 79 26.1 70 21.1 74 74 VRB 5 7 29.91 1013 10 16 0.00 0.00
11:36 am 11:36 Mostly Cloudy 80 26.7 71 21.7 74 74 Calm 29.93 1013 10 16 0.00 0.00
11:53 am 11:53 Mostly Cloudy 82 27.8 71 21.7 69 69 VRB 3 6 29.92 1013 10 16 0.00 0.00
12:04 pm 12:04 Partly Cloudy 83 28.3 71 21.7 67 67 VRB 3 6 29.92 1013 10 16 0.00 0.00
12:53 pm 12:53 Partly Cloudy 84 28.9 71 21.7 65 65 Calm 29.91 1013 10 16 0.00 0.00
1:53 pm 13:53 Partly Cloudy 88 31.1 71 21.7 57 57 VRB 3 6 29.91 1013 10 16 0.00 0.00
2:53 pm 14:53 Mostly Cloudy 88 31.1 69 20.6 54 54 Calm 29.91 1013 10 16 0.00 0.00
3:53 pm 15:53 Partly Cloudy 91 32.8 68 20 47 47 VRB 5 7 29.89 1012 10 16 0.00 0.00
4:53 pm 16:53 Sunny 92 33.3 67 19.4 44 44 Calm 29.88 1012 10 16 0.00 0.00
5:53 pm 17:53 Sunny 91 32.8 66 18.9 44 44 Calm 29.88 1012 10 16 0.00 0.00
6:53 pm 18:53 Sunny 90 32.2 66 18.9 45 45 Calm 29.87 1012 10 16 0.00 0.00
7:53 pm 19:53 Sunny 88 31.1 66 18.9 48 48 Calm 29.87 1011 10 16 0.00 0.00
8:53 pm 20:53 Partly Cloudy 82 27.8 69 20.6 65 65 Calm 29.88 1012 10 16 0.00 0.00
9:53 pm 21:53 Mostly Cloudy 81 27.2 69 20.6 67 67 Calm 29.90 1012 10 16 0.00 0.00
10:53 pm 22:53 Clear 78 25.6 69 20.6 74 74 Calm 29.92 1013 10 16 0.00 0.00
11:53 pm 23:53 Mostly Clear 76 24.4 69 20.6 79 79 Calm 29.93 1014 10 16 0.00 0.00

Powered by AerisWeather